Year,Month,Day,Hour,Minute,Value (Times are PST for temperature in C)
2016,05,31,00,00,15.00
2016,05,31,00,01,15.00
2016,05,31,00,02,14.90
2016,05,31,00,03,14.90
2016,05,31,00,04,14.90
2016,05,31,00,05,14.90
2016,05,31,00,06,14.90
2016,05,31,00,07,14.80
2016,05,31,00,08,14.80
2016,05,31,00,09,14.80
2016,05,31,00,10,14.80
2016,05,31,00,11,14.80
2016,05,31,00,12,14.80
2016,05,31,00,13,14.80
2016,05,31,00,14,14.80
2016,05,31,00,15,14.70
2016,05,31,00,16,14.70
2016,05,31,00,17,14.70
2016,05,31,00,18,14.70
2016,05,31,00,19,14.60
2016,05,31,00,20,14.60
2016,05,31,00,21,14.60
2016,05,31,00,22,14.60
2016,05,31,00,23,14.60
2016,05,31,00,24,14.50
2016,05,31,00,25,14.50
2016,05,31,00,26,14.50
2016,05,31,00,27,14.40
2016,05,31,00,28,14.40
2016,05,31,00,29,14.40
2016,05,31,00,30,14.40
2016,05,31,00,31,14.40
2016,05,31,00,32,14.30
2016,05,31,00,33,14.30
2016,05,31,00,34,14.30
2016,05,31,00,35,14.30
2016,05,31,00,36,14.20
2016,05,31,00,37,14.20
2016,05,31,00,38,14.20
2016,05,31,00,39,14.20
2016,05,31,00,40,14.20
2016,05,31,00,41,14.10
2016,05,31,00,42,14.10
2016,05,31,00,43,14.10
2016,05,31,00,44,14.10
2016,05,31,00,45,14.00
2016,05,31,00,46,14.00
2016,05,31,00,47,14.00
2016,05,31,00,48,14.00
2016,05,31,00,49,13.90
2016,05,31,00,50,13.90
2016,05,31,00,51,13.90
2016,05,31,00,52,13.90
2016,05,31,00,53,13.80
2016,05,31,00,54,13.80
2016,05,31,00,55,13.80
2016,05,31,00,56,13.80
2016,05,31,00,57,13.80
2016,05,31,00,58,13.80
2016,05,31,00,59,13.70
2016,05,31,01,00,13.70
2016,05,31,01,01,13.70
2016,05,31,01,02,13.70
2016,05,31,01,03,13.70
2016,05,31,01,04,13.70
2016,05,31,01,05,13.70
2016,05,31,01,06,13.70
2016,05,31,01,07,13.70
2016,05,31,01,08,13.70
2016,05,31,01,09,13.70
2016,05,31,01,10,13.70
2016,05,31,01,11,13.70
2016,05,31,01,12,13.60
2016,05,31,01,13,13.60
2016,05,31,01,14,13.60
2016,05,31,01,15,13.60
2016,05,31,01,16,13.60
2016,05,31,01,17,13.60
2016,05,31,01,18,13.60
2016,05,31,01,19,13.60
2016,05,31,01,20,13.60
2016,05,31,01,21,13.60
2016,05,31,01,22,13.60
2016,05,31,01,23,13.60
2016,05,31,01,24,13.60
2016,05,31,01,25,13.60
2016,05,31,01,26,13.60
2016,05,31,01,27,13.60
2016,05,31,01,28,13.60
2016,05,31,01,29,13.60
2016,05,31,01,30,13.60
2016,05,31,01,31,13.60
2016,05,31,01,32,13.60
2016,05,31,01,33,13.60
2016,05,31,01,34,13.60
2016,05,31,01,35,13.60
2016,05,31,01,36,13.60
2016,05,31,01,37,13.60
2016,05,31,01,38,13.60
2016,05,31,01,39,13.50
2016,05,31,01,40,13.60
2016,05,31,01,41,13.50
2016,05,31,01,42,13.60
2016,05,31,01,43,13.60
2016,05,31,01,44,13.60
2016,05,31,01,45,13.60
2016,05,31,01,46,13.60
2016,05,31,01,47,13.50
2016,05,31,01,48,13.60
2016,05,31,01,49,13.60
2016,05,31,01,50,13.60
2016,05,31,01,51,13.60
2016,05,31,01,52,13.60
2016,05,31,01,53,13.60
2016,05,31,01,54,13.60
2016,05,31,01,55,13.60
2016,05,31,01,56,13.60
2016,05,31,01,57,13.60
2016,05,31,01,58,13.50
2016,05,31,01,59,13.50
2016,05,31,02,00,13.50
2016,05,31,02,01,13.50
2016,05,31,02,02,13.50
2016,05,31,02,03,13.50
2016,05,31,02,04,13.50
2016,05,31,02,05,13.40
2016,05,31,02,06,13.40
2016,05,31,02,07,13.40
2016,05,31,02,08,13.40
2016,05,31,02,09,13.40
2016,05,31,02,10,13.40
2016,05,31,02,11,13.30
2016,05,31,02,12,13.30
2016,05,31,02,13,13.30
2016,05,31,02,14,13.30
2016,05,31,02,15,13.30
2016,05,31,02,16,13.30
2016,05,31,02,17,13.30
2016,05,31,02,18,13.20
2016,05,31,02,19,13.20
2016,05,31,02,20,13.20
2016,05,31,02,21,13.20
2016,05,31,02,22,13.20
2016,05,31,02,23,13.20
2016,05,31,02,24,13.20
2016,05,31,02,25,13.20
2016,05,31,02,26,13.20
2016,05,31,02,27,13.20
2016,05,31,02,28,13.10
2016,05,31,02,29,13.10
2016,05,31,02,30,13.10
2016,05,31,02,31,13.10
2016,05,31,02,32,13.10
2016,05,31,02,33,13.10
2016,05,31,02,34,13.10
2016,05,31,02,35,13.10
2016,05,31,02,36,13.10
2016,05,31,02,37,13.10
2016,05,31,02,38,13.10
2016,05,31,02,39,13.10
2016,05,31,02,40,13.10
2016,05,31,02,41,13.10
2016,05,31,02,42,13.10
2016,05,31,02,43,13.10
2016,05,31,02,44,13.10
2016,05,31,02,45,13.10
2016,05,31,02,46,13.10
2016,05,31,02,47,13.10
2016,05,31,02,48,13.10
2016,05,31,02,49,13.10
2016,05,31,02,50,13.10
2016,05,31,02,51,13.10
2016,05,31,02,52,13.10
2016,05,31,02,53,13.10
2016,05,31,02,54,13.10
2016,05,31,02,55,13.10
2016,05,31,02,56,13.10
2016,05,31,02,57,13.10
2016,05,31,02,58,13.10
2016,05,31,02,59,13.10
2016,05,31,03,00,13.10
2016,05,31,03,01,13.10
2016,05,31,03,02,13.10
2016,05,31,03,03,13.10
2016,05,31,03,04,13.10
2016,05,31,03,05,13.10
2016,05,31,03,06,13.10
2016,05,31,03,07,13.10
2016,05,31,03,08,13.10
2016,05,31,03,09,13.10
2016,05,31,03,10,13.10
2016,05,31,03,11,13.10
2016,05,31,03,12,13.10
2016,05,31,03,13,13.10
2016,05,31,03,14,13.10
2016,05,31,03,15,13.10
2016,05,31,03,16,13.10
2016,05,31,03,17,13.10
2016,05,31,03,18,13.10
2016,05,31,03,19,13.10
2016,05,31,03,20,13.10
2016,05,31,03,21,13.10
2016,05,31,03,22,13.20
2016,05,31,03,23,13.10
2016,05,31,03,24,13.20
2016,05,31,03,25,13.20
2016,05,31,03,26,13.20
2016,05,31,03,27,13.20
2016,05,31,03,28,13.20
2016,05,31,03,29,13.10
2016,05,31,03,30,13.10
2016,05,31,03,31,13.10
2016,05,31,03,32,13.10
2016,05,31,03,33,13.10
2016,05,31,03,34,13.10
2016,05,31,03,35,13.10
2016,05,31,03,36,13.10
2016,05,31,03,37,13.10
2016,05,31,03,38,13.10
2016,05,31,03,39,13.00
2016,05,31,03,40,13.00
2016,05,31,03,41,13.00
2016,05,31,03,42,13.00
2016,05,31,03,43,13.00
2016,05,31,03,44,13.00
2016,05,31,03,45,13.00
2016,05,31,03,46,13.00
2016,05,31,03,47,13.00
2016,05,31,03,48,13.00
2016,05,31,03,49,13.00
2016,05,31,03,50,13.00
2016,05,31,03,51,13.10
2016,05,31,03,52,13.10
2016,05,31,03,53,13.10
2016,05,31,03,54,13.10
2016,05,31,03,55,13.10
2016,05,31,03,56,13.10
2016,05,31,03,57,13.10
2016,05,31,03,58,13.10
2016,05,31,03,59,13.10
2016,05,31,04,00,13.10
2016,05,31,04,01,13.10
2016,05,31,04,02,13.10
2016,05,31,04,03,13.10
2016,05,31,04,04,13.10
2016,05,31,04,05,13.10
2016,05,31,04,06,13.10
2016,05,31,04,07,13.10
2016,05,31,04,08,13.10
2016,05,31,04,09,13.20
2016,05,31,04,10,13.20
2016,05,31,04,11,13.20
2016,05,31,04,12,13.20
2016,05,31,04,13,13.20
2016,05,31,04,14,13.20
2016,05,31,04,15,13.20
2016,05,31,04,16,13.20
2016,05,31,04,17,13.20
2016,05,31,04,18,13.20
2016,05,31,04,19,13.20
2016,05,31,04,20,13.20
2016,05,31,04,21,13.20
2016,05,31,04,22,13.20
2016,05,31,04,23,13.20
2016,05,31,04,24,13.20
2016,05,31,04,25,13.20
2016,05,31,04,26,13.20
2016,05,31,04,27,13.20
2016,05,31,04,28,13.20
2016,05,31,04,29,13.20
2016,05,31,04,30,13.20
2016,05,31,04,31,13.20
2016,05,31,04,32,13.20
2016,05,31,04,33,13.20
2016,05,31,04,34,13.20
2016,05,31,04,35,13.30
2016,05,31,04,36,13.30
2016,05,31,04,37,13.30
2016,05,31,04,38,13.30
2016,05,31,04,39,13.30
2016,05,31,04,40,13.30
2016,05,31,04,41,13.30
2016,05,31,04,42,13.30
2016,05,31,04,43,13.40
2016,05,31,04,44,13.40
2016,05,31,04,45,13.40
2016,05,31,04,46,13.40
2016,05,31,04,47,13.40
2016,05,31,04,48,13.40
2016,05,31,04,49,13.40
2016,05,31,04,50,13.40
2016,05,31,04,51,13.40
2016,05,31,04,52,13.40
2016,05,31,04,53,13.30
2016,05,31,04,54,13.30
2016,05,31,04,55,13.30
2016,05,31,04,56,13.30
2016,05,31,04,57,13.30
2016,05,31,04,58,13.30
2016,05,31,04,59,13.30
2016,05,31,05,00,13.20
2016,05,31,05,01,13.20
2016,05,31,05,02,13.20
2016,05,31,05,03,13.20
2016,05,31,05,04,13.10
2016,05,31,05,05,13.10
2016,05,31,05,06,13.10
2016,05,31,05,07,13.00
2016,05,31,05,08,13.00
2016,05,31,05,09,13.00
2016,05,31,05,10,13.00
2016,05,31,05,11,12.90
2016,05,31,05,12,12.90
2016,05,31,05,13,12.90
2016,05,31,05,14,12.90
2016,05,31,05,15,12.90
2016,05,31,05,16,12.80
2016,05,31,05,17,12.80
2016,05,31,05,18,12.80
2016,05,31,05,19,12.80
2016,05,31,05,20,12.70
2016,05,31,05,21,12.70
2016,05,31,05,22,12.70
2016,05,31,05,23,12.60
2016,05,31,05,24,12.60
2016,05,31,05,25,12.60
2016,05,31,05,26,12.50
2016,05,31,05,27,12.50
2016,05,31,05,28,12.40
2016,05,31,05,29,12.40
2016,05,31,05,30,12.40
2016,05,31,05,31,12.30
2016,05,31,05,32,12.30
2016,05,31,05,33,12.30
2016,05,31,05,34,12.30
2016,05,31,05,35,12.30
2016,05,31,05,36,12.20
2016,05,31,05,37,12.20
2016,05,31,05,38,12.20
2016,05,31,05,39,12.20
2016,05,31,05,40,12.20
2016,05,31,05,41,12.10
2016,05,31,05,42,12.10
2016,05,31,05,43,12.10
2016,05,31,05,44,12.10
2016,05,31,05,45,12.10
2016,05,31,05,46,12.10
2016,05,31,05,47,12.10
2016,05,31,05,48,12.10
2016,05,31,05,49,12.10
2016,05,31,05,50,12.10
2016,05,31,05,51,12.10
2016,05,31,05,52,12.10
2016,05,31,05,53,12.10
2016,05,31,05,54,12.10
2016,05,31,05,55,12.10
2016,05,31,05,56,12.10
2016,05,31,05,57,12.10
2016,05,31,05,58,12.10
2016,05,31,05,59,12.10
2016,05,31,06,00,12.10
2016,05,31,06,01,12.10
2016,05,31,06,02,12.10
2016,05,31,06,03,12.10
2016,05,31,06,04,12.10
2016,05,31,06,05,12.10
2016,05,31,06,06,12.10
2016,05,31,06,07,12.10
2016,05,31,06,08,12.10
2016,05,31,06,09,12.10
2016,05,31,06,10,12.10
2016,05,31,06,11,12.20
2016,05,31,06,12,12.20
2016,05,31,06,13,12.20
2016,05,31,06,14,12.20
2016,05,31,06,15,12.20
2016,05,31,06,16,12.20
2016,05,31,06,17,12.20
2016,05,31,06,18,12.20
2016,05,31,06,19,12.20
2016,05,31,06,20,12.20
2016,05,31,06,21,12.20
2016,05,31,06,22,12.20
2016,05,31,06,23,12.20
2016,05,31,06,24,12.20
2016,05,31,06,25,12.20
2016,05,31,06,26,12.20
2016,05,31,06,27,12.30
2016,05,31,06,28,12.30
2016,05,31,06,29,12.30
2016,05,31,06,30,12.30
2016,05,31,06,31,12.30
2016,05,31,06,32,12.30
2016,05,31,06,33,12.30
2016,05,31,06,34,12.30
2016,05,31,06,35,12.30
2016,05,31,06,36,12.30
2016,05,31,06,37,12.40
2016,05,31,06,38,12.40
2016,05,31,06,39,12.40
2016,05,31,06,40,12.40
2016,05,31,06,41,12.40
2016,05,31,06,42,12.50
2016,05,31,06,43,12.50
2016,05,31,06,44,12.60
2016,05,31,06,45,12.60
2016,05,31,06,46,12.60
2016,05,31,06,47,12.60
2016,05,31,06,48,12.70
2016,05,31,06,49,12.70
2016,05,31,06,50,12.70
2016,05,31,06,51,12.70
2016,05,31,06,52,12.80
2016,05,31,06,53,12.80
2016,05,31,06,54,12.80
2016,05,31,06,55,12.80
2016,05,31,06,56,12.90
2016,05,31,06,57,12.90
2016,05,31,06,58,13.00
2016,05,31,06,59,13.00
2016,05,31,07,00,13.10
2016,05,31,07,01,13.10
2016,05,31,07,02,13.10
2016,05,31,07,03,13.20
2016,05,31,07,04,13.20
2016,05,31,07,05,13.30
2016,05,31,07,06,13.30
2016,05,31,07,07,13.40
2016,05,31,07,08,13.40
2016,05,31,07,09,13.50
2016,05,31,07,10,13.50
2016,05,31,07,11,13.60
2016,05,31,07,12,13.60
2016,05,31,07,13,13.70
2016,05,31,07,14,13.70
2016,05,31,07,15,13.80
2016,05,31,07,16,13.80
2016,05,31,07,17,13.80
2016,05,31,07,18,13.90
2016,05,31,07,19,13.90
2016,05,31,07,20,13.90
2016,05,31,07,21,14.00
2016,05,31,07,22,14.00
2016,05,31,07,23,14.10
2016,05,31,07,24,14.10
2016,05,31,07,25,14.10
2016,05,31,07,26,14.10
2016,05,31,07,27,14.20
2016,05,31,07,28,14.20
2016,05,31,07,29,14.30
2016,05,31,07,30,14.30
2016,05,31,07,31,14.30
2016,05,31,07,32,14.30
2016,05,31,07,33,14.40
2016,05,31,07,34,14.40
2016,05,31,07,35,14.40
2016,05,31,07,36,14.50
2016,05,31,07,37,14.50
2016,05,31,07,38,14.60
2016,05,31,07,39,14.60
2016,05,31,07,40,14.70
2016,05,31,07,41,14.70
2016,05,31,07,42,14.80
2016,05,31,07,43,14.80
2016,05,31,07,44,14.80
2016,05,31,07,45,14.80
2016,05,31,07,46,14.80
2016,05,31,07,47,14.90
2016,05,31,07,48,14.90
2016,05,31,07,49,14.90
2016,05,31,07,50,14.90
2016,05,31,07,51,14.90
2016,05,31,07,52,15.00
2016,05,31,07,53,15.00
2016,05,31,07,54,15.00
2016,05,31,07,55,15.10
2016,05,31,07,56,15.10
2016,05,31,07,57,15.20
2016,05,31,07,58,15.20
2016,05,31,07,59,15.30
2016,05,31,08,00,15.30
2016,05,31,08,01,15.30
2016,05,31,08,02,15.40
2016,05,31,08,03,15.40
2016,05,31,08,04,15.40
2016,05,31,08,05,15.40
2016,05,31,08,06,15.50
2016,05,31,08,07,15.50
2016,05,31,08,08,15.50
2016,05,31,08,09,15.50
2016,05,31,08,10,15.60
2016,05,31,08,11,15.60
2016,05,31,08,12,15.70
2016,05,31,08,13,15.70
2016,05,31,08,14,15.80
2016,05,31,08,15,15.80
2016,05,31,08,16,15.80
2016,05,31,08,17,15.80
2016,05,31,08,18,15.90
2016,05,31,08,19,15.90
2016,05,31,08,20,15.90
2016,05,31,08,21,15.90
2016,05,31,08,22,15.90
2016,05,31,08,23,15.90
2016,05,31,08,24,15.90
2016,05,31,08,25,15.90
2016,05,31,08,26,15.90
2016,05,31,08,27,15.90
2016,05,31,08,28,15.90
2016,05,31,08,29,15.90
2016,05,31,08,30,15.90
2016,05,31,08,31,16.00
2016,05,31,08,32,16.00
2016,05,31,08,33,16.00
2016,05,31,08,34,16.00
2016,05,31,08,35,16.00
2016,05,31,08,36,16.10
2016,05,31,08,37,16.10
2016,05,31,08,38,16.10
2016,05,31,08,39,16.10
2016,05,31,08,40,16.10
2016,05,31,08,41,16.10
2016,05,31,08,42,16.10
2016,05,31,08,43,16.10
2016,05,31,08,44,16.20
2016,05,31,08,45,16.20
2016,05,31,08,46,16.30
2016,05,31,08,47,16.30
2016,05,31,08,48,16.40
2016,05,31,08,49,16.40
2016,05,31,08,50,16.40
2016,05,31,08,51,16.40
2016,05,31,08,52,16.40
2016,05,31,08,53,16.40
2016,05,31,08,54,16.40
2016,05,31,08,55,16.40
2016,05,31,08,56,16.30
2016,05,31,08,57,16.30
2016,05,31,08,58,16.20
2016,05,31,08,59,16.20
2016,05,31,09,00,16.20
2016,05,31,09,01,16.10
2016,05,31,09,02,16.10
2016,05,31,09,03,16.20
2016,05,31,09,04,16.20
2016,05,31,09,05,16.20
2016,05,31,09,06,16.20
2016,05,31,09,07,16.20
2016,05,31,09,08,16.10
2016,05,31,09,09,16.20
2016,05,31,09,10,16.20
2016,05,31,09,11,16.20
2016,05,31,09,12,16.20
2016,05,31,09,13,16.20
2016,05,31,09,14,16.20
2016,05,31,09,15,16.30
2016,05,31,09,16,16.30
2016,05,31,09,17,16.30
2016,05,31,09,18,16.40
2016,05,31,09,19,16.40
2016,05,31,09,20,16.40
2016,05,31,09,21,16.50
2016,05,31,09,22,16.50
2016,05,31,09,23,16.50
2016,05,31,09,24,16.50
2016,05,31,09,25,16.40
2016,05,31,09,26,16.50
2016,05,31,09,27,16.60
2016,05,31,09,28,16.60
2016,05,31,09,29,16.70
2016,05,31,09,30,16.90
2016,05,31,09,31,16.90
2016,05,31,09,32,17.00
2016,05,31,09,33,17.10
2016,05,31,09,34,17.10
2016,05,31,09,35,17.10
2016,05,31,09,36,17.10
2016,05,31,09,37,17.10
2016,05,31,09,38,17.10
2016,05,31,09,39,17.10
2016,05,31,09,40,17.10
2016,05,31,09,41,17.10
2016,05,31,09,42,17.20
2016,05,31,09,43,17.20
2016,05,31,09,44,17.30
2016,05,31,09,45,17.30
2016,05,31,09,46,17.30
2016,05,31,09,47,17.20
2016,05,31,09,48,17.20
2016,05,31,09,49,17.00
2016,05,31,09,50,17.00
2016,05,31,09,51,16.90
2016,05,31,09,52,16.80
2016,05,31,09,53,16.80
2016,05,31,09,54,16.70
2016,05,31,09,55,16.70
2016,05,31,09,56,16.70
2016,05,31,09,57,16.70
2016,05,31,09,58,16.70
2016,05,31,09,59,16.70
2016,05,31,10,00,16.70
2016,05,31,10,01,16.70
2016,05,31,10,02,16.80
2016,05,31,10,03,16.80
2016,05,31,10,04,16.90
2016,05,31,10,05,17.00
2016,05,31,10,06,17.00
2016,05,31,10,07,17.10
2016,05,31,10,08,17.20
2016,05,31,10,09,17.20
2016,05,31,10,10,17.20
2016,05,31,10,11,17.10
2016,05,31,10,12,17.10
2016,05,31,10,13,17.00
2016,05,31,10,14,17.00
2016,05,31,10,15,16.90
2016,05,31,10,16,16.90
2016,05,31,10,17,16.90
2016,05,31,10,18,16.90
2016,05,31,10,19,16.90
2016,05,31,10,20,16.80
2016,05,31,10,21,16.70
2016,05,31,10,22,16.70
2016,05,31,10,23,16.70
2016,05,31,10,24,16.60
2016,05,31,10,25,16.60
2016,05,31,10,26,16.70
2016,05,31,10,27,16.80
2016,05,31,10,28,16.80
2016,05,31,10,29,16.90
2016,05,31,10,30,17.00
2016,05,31,10,31,17.10
2016,05,31,10,32,17.10
2016,05,31,10,33,17.20
2016,05,31,10,34,17.30
2016,05,31,10,35,17.40
2016,05,31,10,36,17.50
2016,05,31,10,37,17.60
2016,05,31,10,38,17.70
2016,05,31,10,39,17.80
2016,05,31,10,40,17.90
2016,05,31,10,41,18.00
2016,05,31,10,42,18.10
2016,05,31,10,43,18.10
2016,05,31,10,44,18.20
2016,05,31,10,45,18.20
2016,05,31,10,46,18.20
2016,05,31,10,47,18.20
2016,05,31,10,48,18.10
2016,05,31,10,49,18.10
2016,05,31,10,50,18.10
2016,05,31,10,51,18.20
2016,05,31,10,52,18.20
2016,05,31,10,53,18.20
2016,05,31,10,54,18.20
2016,05,31,10,55,18.20
2016,05,31,10,56,18.20
2016,05,31,10,57,18.20
2016,05,31,10,58,18.20
2016,05,31,10,59,18.30
2016,05,31,11,00,18.30
2016,05,31,11,01,18.30
2016,05,31,11,02,18.30
2016,05,31,11,03,18.40
2016,05,31,11,04,18.40
2016,05,31,11,05,18.50
2016,05,31,11,06,18.60
2016,05,31,11,07,18.60
2016,05,31,11,08,18.70
2016,05,31,11,09,18.80
2016,05,31,11,10,18.90
2016,05,31,11,11,18.90
2016,05,31,11,12,18.90
2016,05,31,11,13,18.90
2016,05,31,11,14,18.90
2016,05,31,11,15,18.90
2016,05,31,11,16,18.90
2016,05,31,11,17,19.00
2016,05,31,11,18,19.00
2016,05,31,11,19,19.10
2016,05,31,11,20,19.10
2016,05,31,11,21,19.20
2016,05,31,11,22,19.20
2016,05,31,11,23,19.20
2016,05,31,11,24,19.30
2016,05,31,11,25,19.30
2016,05,31,11,26,19.30
2016,05,31,11,27,19.20
2016,05,31,11,28,19.20
2016,05,31,11,29,19.20
2016,05,31,11,30,19.20
2016,05,31,11,31,19.20
2016,05,31,11,32,19.20
2016,05,31,11,33,19.20
2016,05,31,11,34,19.20
2016,05,31,11,35,19.20
2016,05,31,11,36,19.20
2016,05,31,11,37,19.10
2016,05,31,11,38,19.10
2016,05,31,11,39,19.10
2016,05,31,11,40,19.00
2016,05,31,11,41,19.00
2016,05,31,11,42,19.00
2016,05,31,11,43,18.90
2016,05,31,11,44,18.90
2016,05,31,11,45,18.80
2016,05,31,11,46,18.80
2016,05,31,11,47,18.70
2016,05,31,11,48,18.70
2016,05,31,11,49,18.70
2016,05,31,11,50,18.80
2016,05,31,11,51,18.90
2016,05,31,11,52,19.00
2016,05,31,11,53,19.10
2016,05,31,11,54,19.20
2016,05,31,11,55,19.30
2016,05,31,11,56,19.30
2016,05,31,11,57,19.30
2016,05,31,11,58,19.30
2016,05,31,11,59,19.40
2016,05,31,12,00,19.50
2016,05,31,12,01,19.50
2016,05,31,12,02,19.60
2016,05,31,12,03,19.50
2016,05,31,12,04,19.50
2016,05,31,12,05,19.30
2016,05,31,12,06,19.30
2016,05,31,12,07,19.30
2016,05,31,12,08,19.30
2016,05,31,12,09,19.30
2016,05,31,12,10,19.30
2016,05,31,12,11,19.40
2016,05,31,12,12,19.50
2016,05,31,12,13,19.60
2016,05,31,12,14,19.60
2016,05,31,12,15,19.50
2016,05,31,12,16,19.50
2016,05,31,12,17,19.40
2016,05,31,12,18,19.30
2016,05,31,12,19,19.30
2016,05,31,12,20,19.30
2016,05,31,12,21,19.30
2016,05,31,12,22,19.40
2016,05,31,12,23,19.50
2016,05,31,12,24,19.50
2016,05,31,12,25,19.40
2016,05,31,12,26,19.40
2016,05,31,12,27,19.50
2016,05,31,12,28,19.50
2016,05,31,12,29,19.50
2016,05,31,12,30,19.50
2016,05,31,12,31,19.40
2016,05,31,12,32,19.30
2016,05,31,12,33,19.30
2016,05,31,12,34,19.30
2016,05,31,12,35,19.30
2016,05,31,12,36,19.20
2016,05,31,12,37,19.20
2016,05,31,12,38,19.20
2016,05,31,12,39,19.20
2016,05,31,12,40,19.20
2016,05,31,12,41,19.30
2016,05,31,12,42,19.30
2016,05,31,12,43,19.30
2016,05,31,12,44,19.30
2016,05,31,12,45,19.40
2016,05,31,12,46,19.50
2016,05,31,12,47,19.60
2016,05,31,12,48,19.70
2016,05,31,12,49,19.90
2016,05,31,12,50,20.00
2016,05,31,12,51,20.20
2016,05,31,12,52,20.30
2016,05,31,12,53,20.40
2016,05,31,12,54,20.40
2016,05,31,12,55,20.40
2016,05,31,12,56,20.40
2016,05,31,12,57,20.30
2016,05,31,12,58,20.20
2016,05,31,12,59,20.20
2016,05,31,13,00,20.20
2016,05,31,13,01,20.20
2016,05,31,13,02,20.20
2016,05,31,13,03,20.20
2016,05,31,13,04,20.30
2016,05,31,13,05,20.30
2016,05,31,13,06,20.50
2016,05,31,13,07,20.60
2016,05,31,13,08,20.70
2016,05,31,13,09,20.80
2016,05,31,13,10,20.80
2016,05,31,13,11,21.00
2016,05,31,13,12,21.10
2016,05,31,13,13,21.20
2016,05,31,13,14,21.30
2016,05,31,13,15,21.30
2016,05,31,13,16,21.20
2016,05,31,13,17,21.20
2016,05,31,13,18,21.10
2016,05,31,13,19,21.10
2016,05,31,13,20,21.10
2016,05,31,13,21,21.10
2016,05,31,13,22,21.20
2016,05,31,13,23,21.20
2016,05,31,13,24,21.20
2016,05,31,13,25,21.20
2016,05,31,13,26,21.20
2016,05,31,13,27,21.20
2016,05,31,13,28,21.20
2016,05,31,13,29,21.20
2016,05,31,13,30,21.20
2016,05,31,13,31,21.20
2016,05,31,13,32,21.10
2016,05,31,13,33,21.10
2016,05,31,13,34,21.20
2016,05,31,13,35,21.30
2016,05,31,13,36,21.40
2016,05,31,13,37,21.60
2016,05,31,13,38,21.70
2016,05,31,13,39,21.80
2016,05,31,13,40,21.90
2016,05,31,13,41,21.90
2016,05,31,13,42,21.90
2016,05,31,13,43,22.00
2016,05,31,13,44,22.10
2016,05,31,13,45,22.10
2016,05,31,13,46,22.10
2016,05,31,13,47,22.10
2016,05,31,13,48,22.00
2016,05,31,13,49,22.00
2016,05,31,13,50,22.00
2016,05,31,13,51,22.00
2016,05,31,13,52,22.00
2016,05,31,13,53,22.00
2016,05,31,13,54,22.10
2016,05,31,13,55,22.10
2016,05,31,13,56,22.10
2016,05,31,13,57,22.10
2016,05,31,13,58,22.10
2016,05,31,13,59,22.10
2016,05,31,14,00,22.10
2016,05,31,14,01,22.10
2016,05,31,14,02,22.00
2016,05,31,14,03,22.00
2016,05,31,14,04,21.90
2016,05,31,14,05,21.90
2016,05,31,14,06,22.00
2016,05,31,14,07,22.00
2016,05,31,14,08,22.00
2016,05,31,14,09,22.10
2016,05,31,14,10,22.10
2016,05,31,14,11,22.20
2016,05,31,14,12,22.20
2016,05,31,14,13,22.20
2016,05,31,14,14,22.20
2016,05,31,14,15,22.20
2016,05,31,14,16,22.30
2016,05,31,14,17,22.30
2016,05,31,14,18,22.30
2016,05,31,14,19,22.30
2016,05,31,14,20,22.20
2016,05,31,14,21,22.30
2016,05,31,14,22,22.30
2016,05,31,14,23,22.30
2016,05,31,14,24,22.40
2016,05,31,14,25,22.40
2016,05,31,14,26,22.40
2016,05,31,14,27,22.40
2016,05,31,14,28,22.50
2016,05,31,14,29,22.50
2016,05,31,14,30,22.60
2016,05,31,14,31,22.60
2016,05,31,14,32,22.70
2016,05,31,14,33,22.70
2016,05,31,14,34,22.70
2016,05,31,14,35,22.80
2016,05,31,14,36,22.80
2016,05,31,14,37,22.80
2016,05,31,14,38,22.80
2016,05,31,14,39,22.80
2016,05,31,14,40,22.80
2016,05,31,14,41,22.80
2016,05,31,14,42,22.80
2016,05,31,14,43,22.80
2016,05,31,14,44,22.80
2016,05,31,14,45,22.70
2016,05,31,14,46,22.70
2016,05,31,14,47,22.70
2016,05,31,14,48,22.70
2016,05,31,14,49,22.70
2016,05,31,14,50,22.70
2016,05,31,14,51,22.70
2016,05,31,14,52,22.70
2016,05,31,14,53,22.70
2016,05,31,14,54,22.70
2016,05,31,14,55,22.70
2016,05,31,14,56,22.70
2016,05,31,14,57,22.70
2016,05,31,14,58,22.60
2016,05,31,14,59,22.60
2016,05,31,15,00,22.60
2016,05,31,15,01,22.60
2016,05,31,15,02,22.50
2016,05,31,15,03,22.50
2016,05,31,15,04,22.60
2016,05,31,15,05,22.60
2016,05,31,15,06,22.70
2016,05,31,15,07,22.70
2016,05,31,15,08,22.70
2016,05,31,15,09,22.80
2016,05,31,15,10,22.80
2016,05,31,15,11,22.80
2016,05,31,15,12,22.80
2016,05,31,15,13,22.80
2016,05,31,15,14,22.80
2016,05,31,15,15,22.80
2016,05,31,15,16,22.80
2016,05,31,15,17,22.80
2016,05,31,15,18,22.80
2016,05,31,15,19,22.90
2016,05,31,15,20,22.90
2016,05,31,15,21,23.00
2016,05,31,15,22,23.00
2016,05,31,15,23,23.10
2016,05,31,15,24,23.10
2016,05,31,15,25,23.10
2016,05,31,15,26,23.10
2016,05,31,15,27,23.10
2016,05,31,15,28,23.10
2016,05,31,15,29,23.10
2016,05,31,15,30,23.00
2016,05,31,15,31,23.00
2016,05,31,15,32,22.90
2016,05,31,15,33,23.00
2016,05,31,15,34,23.00
2016,05,31,15,35,23.10
2016,05,31,15,36,23.10
2016,05,31,15,37,23.20
2016,05,31,15,38,23.20
2016,05,31,15,39,23.20
2016,05,31,15,40,23.10
2016,05,31,15,41,23.10
2016,05,31,15,42,23.10
2016,05,31,15,43,23.10
2016,05,31,15,44,23.10
2016,05,31,15,45,23.10
2016,05,31,15,46,23.10
2016,05,31,15,47,23.00
2016,05,31,15,48,23.00
2016,05,31,15,49,22.90
2016,05,31,15,50,22.90
2016,05,31,15,51,22.90
2016,05,31,15,52,22.80
2016,05,31,15,53,22.80
2016,05,31,15,54,22.80
2016,05,31,15,55,22.80
2016,05,31,15,56,22.80
2016,05,31,15,57,22.80
2016,05,31,15,58,22.80
2016,05,31,15,59,22.80
2016,05,31,16,00,22.80
2016,05,31,16,01,22.80
2016,05,31,16,02,22.90
2016,05,31,16,03,22.90
2016,05,31,16,04,23.00
2016,05,31,16,05,23.00
2016,05,31,16,06,23.10
2016,05,31,16,07,23.20
2016,05,31,16,08,23.20
2016,05,31,16,09,23.30
2016,05,31,16,10,23.30
2016,05,31,16,11,23.30
2016,05,31,16,12,23.30
2016,05,31,16,13,23.30
2016,05,31,16,14,23.30
2016,05,31,16,15,23.40
2016,05,31,16,16,23.40
2016,05,31,16,17,23.50
2016,05,31,16,18,23.60
2016,05,31,16,19,23.70
2016,05,31,16,20,23.70
2016,05,31,16,21,23.70
2016,05,31,16,22,23.60
2016,05,31,16,23,23.50
2016,05,31,16,24,23.40
2016,05,31,16,25,23.40
2016,05,31,16,26,23.40
2016,05,31,16,27,23.40
2016,05,31,16,28,23.30
2016,05,31,16,29,23.20
2016,05,31,16,30,23.20
2016,05,31,16,31,23.20
2016,05,31,16,32,23.20
2016,05,31,16,33,23.20
2016,05,31,16,34,23.20
2016,05,31,16,35,23.20
2016,05,31,16,36,23.10
2016,05,31,16,37,23.10
2016,05,31,16,38,23.10
2016,05,31,16,39,23.10
2016,05,31,16,40,23.10
2016,05,31,16,41,23.10
2016,05,31,16,42,23.10
2016,05,31,16,43,23.10
2016,05,31,16,44,23.10
2016,05,31,16,45,23.10
2016,05,31,16,46,23.10
2016,05,31,16,47,23.10
2016,05,31,16,48,23.00
2016,05,31,16,49,23.00
2016,05,31,16,50,23.00
2016,05,31,16,51,22.90
2016,05,31,16,52,22.90
2016,05,31,16,53,22.80
2016,05,31,16,54,22.80
2016,05,31,16,55,22.80
2016,05,31,16,56,22.70
2016,05,31,16,57,22.70
2016,05,31,16,58,22.80
2016,05,31,16,59,22.80
2016,05,31,17,00,22.70
2016,05,31,17,01,22.70
2016,05,31,17,02,22.70
2016,05,31,17,03,22.60
2016,05,31,17,04,22.60
2016,05,31,17,05,22.50
2016,05,31,17,06,22.50
2016,05,31,17,07,22.50
2016,05,31,17,08,22.50
2016,05,31,17,09,22.50
2016,05,31,17,10,22.50
2016,05,31,17,11,22.50
2016,05,31,17,12,22.50
2016,05,31,17,13,22.50
2016,05,31,17,14,22.50
2016,05,31,17,15,22.50
2016,05,31,17,16,22.50
2016,05,31,17,17,22.50
2016,05,31,17,18,22.50
2016,05,31,17,19,22.50